TimeEDT,TemperatureF,Dew PointF,Humidity,Sea Level PressureIn,VisibilityMPH,Wind Direction,Wind SpeedMPH,Gust SpeedMPH,PrecipitationIn,Events,Conditions,WindDirDegrees,DateUTC
12:52 AM,75.9,68.0,76,29.66,10.0,NNW,4.6,-,N/A,,Scattered Clouds,340,2013-06-29 04:52:00
1:52 AM,73.9,69.1,85,29.64,10.0,Calm,Calm,-,N/A,,Clear,0,2013-06-29 05:52:00
2:52 AM,73.9,71.1,91,29.64,10.0,ENE,3.5,-,N/A,,Mostly Cloudy,70,2013-06-29 06:52:00
3:52 AM,72.0,70.0,93,29.63,10.0,ESE,3.5,-,N/A,,Clear,110,2013-06-29 07:52:00
4:52 AM,71.1,69.1,93,29.65,10.0,Calm,Calm,-,N/A,,Clear,0,2013-06-29 08:52:00
5:52 AM,72.0,71.1,97,29.66,10.0,Calm,Calm,-,N/A,,Scattered Clouds,0,2013-06-29 09:52:00
6:52 AM,73.9,71.1,91,29.68,9.0,SW,6.9,-,N/A,,Overcast,230,2013-06-29 10:52:00
7:02 AM,73.4,71.6,94,29.69,10.0,SW,9.2,-,N/A,,Overcast,220,2013-06-29 11:02:00
7:42 AM,73.4,69.8,88,29.70,10.0,SW,9.2,-,N/A,,Mostly Cloudy,230,2013-06-29 11:42:00
7:52 AM,73.9,69.1,85,29.69,10.0,SW,10.4,-,N/A,,Overcast,220,2013-06-29 11:52:00
8:07 AM,73.4,69.8,88,29.70,10.0,SW,9.2,-,N/A,,Mostly Cloudy,230,2013-06-29 12:07:00
8:52 AM,75.0,69.1,82,29.70,10.0,WSW,9.2,-,N/A,,Mostly Cloudy,240,2013-06-29 12:52:00
9:21 AM,75.2,69.8,83,29.71,10.0,WSW,10.4,-,N/A,,Mostly Cloudy,240,2013-06-29 13:21:00
9:52 AM,75.9,70.0,82,29.70,10.0,SW,9.2,-,N/A,,Overcast,230,2013-06-29 13:52:00
10:01 AM,77.0,71.6,83,29.70,10.0,SW,9.2,-,N/A,,Overcast,230,2013-06-29 14:01:00
10:41 AM,78.8,69.8,74,29.70,10.0,West,9.2,-,N/A,,Overcast,260,2013-06-29 14:41:00
10:52 AM,78.1,70.0,76,29.69,10.0,West,10.4,-,N/A,,Overcast,260,2013-06-29 14:52:00
11:06 AM,78.8,71.6,78,29.70,10.0,SSW,9.2,-,N/A,,Overcast,210,2013-06-29 15:06:00
11:52 AM,79.0,71.1,77,29.69,10.0,SW,8.1,-,N/A,,Overcast,230,2013-06-29 15:52:00
12:43 PM,80.6,71.6,74,29.71,10.0,WSW,10.4,-,N/A,,Overcast,250,2013-06-29 16:43:00
12:52 PM,80.1,71.1,74,29.70,10.0,WSW,6.9,-,N/A,,Overcast,240,2013-06-29 16:52:00
1:52 PM,82.0,71.1,69,29.69,10.0,WSW,9.2,-,N/A,,Mostly Cloudy,250,2013-06-29 17:52:00
2:10 PM,80.6,71.6,74,29.70,10.0,SSW,8.1,-,N/A,,Mostly Cloudy,210,2013-06-29 18:10:00
2:33 PM,82.4,71.6,70,29.69,10.0,SW,8.1,-,N/A,,Overcast,220,2013-06-29 18:33:00
2:52 PM,82.9,72.0,69,29.68,10.0,SW,9.2,-,N/A,,Overcast,220,2013-06-29 18:52:00
3:52 PM,84.9,72.0,65,29.68,10.0,Variable,5.8,-,N/A,,Scattered Clouds,0,2013-06-29 19:52:00
4:52 PM,84.0,72.0,67,29.68,10.0,SSW,5.8,-,N/A,,Partly Cloudy,210,2013-06-29 20:52:00
5:52 PM,82.9,73.0,72,29.68,10.0,South,9.2,-,N/A,,Scattered Clouds,190,2013-06-29 21:52:00
6:52 PM,82.0,73.0,74,29.69,10.0,South,6.9,-,N/A,,Clear,190,2013-06-29 22:52:00
7:52 PM,80.1,73.0,79,29.70,10.0,South,6.9,-,N/A,,Clear,180,2013-06-29 23:52:00
8:52 PM,79.0,73.9,84,29.72,10.0,South,6.9,-,N/A,,Mostly Cloudy,170,2013-06-30 00:52:00
9:52 PM,77.0,73.9,90,29.73,10.0,SSE,6.9,-,N/A,,Partly Cloudy,160,2013-06-30 01:52:00
10:52 PM,75.9,73.9,94,29.75,10.0,South,8.1,-,N/A,,Overcast,180,2013-06-30 02:52:00
11:52 PM,75.9,73.0,91,29.75,10.0,South,9.2,-,N/A,,Overcast,190,2013-06-30 03:52:00